This is the latest recevied weather packets stored in our database for station/object KN1OBI-13. If no packets are shown the sender has not sent any weather packets the latest 10 day(s).
| Time | Temp. | Humidity | Pressure | Rain* | Wind** | Luminosity | Snow |
|---|---|---|---|---|---|---|---|
| 1787786190 | 22.78° C | 72% | 996.8 hPa | 0 mm | - | - | - |
| 1787785590 | 23.33° C | 71% | 996.7 hPa | 0 mm | - | - | - |
| 1787784990 | 23.89° C | 71% | 996.7 hPa | 0 mm | - | - | - |
| 1787784390 | 24.44° C | 69% | 996.7 hPa | 0 mm | - | - | - |
| 1787783790 | 25° C | 67% | 996.6 hPa | 0 mm | - | - | - |
| 1787783190 | 25.56° C | 64% | 996.5 hPa | 0 mm | - | - | - |
| 1787782590 | 27.78° C | 59% | 996.8 hPa | 0 mm | - | - | - |
| 1787781990 | 29.44° C | 54% | 996.8 hPa | 0 mm | - | - | - |
| 1787781392 | 30° C | 53% | 996.7 hPa | 0 mm | - | - | - |
| 1787780790 | 30° C | 55% | 996.7 hPa | 0 mm | - | - | - |
| 1787780190 | 29.44° C | 56% | 996.6 hPa | 0 mm | - | - | - |
| 1787779590 | 31.11° C | 52% | 996.8 hPa | 0 mm | - | - | - |
| 1787778990 | 30.56° C | 53% | 996.5 hPa | 0 mm | - | - | - |
| 1787778390 | 30.56° C | 57% | 996.7 hPa | 0 mm | - | - | - |
| 1787777790 | 29.44° C | 58% | 996.8 hPa | 0 mm | - | - | - |
| 1787777190 | 29.44° C | 55% | 996.7 hPa | 0 mm | - | - | - |
| 1787776590 | 28.89° C | 56% | 996.8 hPa | 0 mm | - | - | - |
| 1787775990 | 28.89° C | 60% | 996.8 hPa | 0 mm | - | - | - |
| 1787775390 | 28.33° C | 64% | 996.8 hPa | 0 mm | - | - | - |
| 1787774790 | 28.33° C | 60% | 996.8 hPa | 0 mm | - | - | - |
| 1787774190 | 28.33° C | 60% | 996.8 hPa | 0 mm | - | - | - |
| 1787773590 | 28.33° C | 59% | 996.8 hPa | 0 mm | - | - | - |
| 1787772990 | 27.78° C | 59% | 996.8 hPa | 0 mm | - | - | - |
| 1787772390 | 27.22° C | 63% | 996.8 hPa | 0 mm | - | - | - |
| 1787771790 | 27.22° C | 63% | 996.9 hPa | 0 mm | - | - | - |
* Rain latest hour (hover to see other rain measurements)
** Current wind speed in m/s (hover to see current wind gust speed)